When you browse on this site, cookies collect data to enhance your experience and personalize the content and advertising you see.
Visit our Privacy Policy to learn more. By continuing to use the site, you agree to this use of cookies and data.
  • In Germany
  • List of Countries
  • For 7 days
  • Water Temperature
  • Weather Map
  • Weather Widgets
  • user-avatar
    Login

    Hourly Weather Ajka

    Today, 25 February, Tuesday

    Time Temperature Precipitation Wind Pressure Humidity
    00:00 +4°C° 0 mm 4 mps 738 mmHg 63%
    01:00 +4°C° 0 mm 4 mps 738 mmHg 64%
    02:00 +4°C° 0 mm 4 mps 737 mmHg 66%
    03:00 +4°C° 0 mm 4 mps 736 mmHg 68%
    04:00 +3°C° 0 mm 4 mps 736 mmHg 70%
    05:00 +3°C° 0 mm 3 mps 735 mmHg 72%
    06:00 +3°C° 0 mm 3 mps 735 mmHg 75%
    07:00 +4°C° 0 mm 2 mps 735 mmHg 77%
    08:00 +4°C° 0 mm 3 mps 734 mmHg 74%
    09:00 +7°C° 0 mm 3 mps 734 mmHg 71%
    10:00 +9°C° 0 mm 3 mps 734 mmHg 68%
    11:00 +8°C° 0 mm 4 mps 733 mmHg 68%
    12:00 +10°C° 0 mm 4 mps 733 mmHg 67%
    13:00 +11°C° 0 mm 4 mps 732 mmHg 67%
    14:00 +11°C° 0 mm 4 mps 731 mmHg 68%
    15:00 +12°C° 0 mm 4 mps 731 mmHg 68%
    16:00 +12°C° 0 mm 4 mps 730 mmHg 69%
    17:00 +11°C° 0 mm 4 mps 730 mmHg 72%
    18:00 +10°C° 0 mm 4 mps 730 mmHg 75%
    19:00 +10°C° 0 mm 4 mps 730 mmHg 78%
    20:00 +8°C° 0 mm 4 mps 729 mmHg 79%
    21:00 +8°C° 0 mm 4 mps 729 mmHg 81%
    22:00 +8°C° 0 mm 4 mps 728 mmHg 82%
    23:00 +8°C° 0.6 mm 4 mps 728 mmHg 84%

    Tomorrow, 26 February, Wednesday

    Time Temperature Precipitation Wind Pressure Humidity
    00:00 +8°C° 0.6 mm 3 mps 727 mmHg 86%
    01:00 +8°C° 0.6 mm 3 mps 727 mmHg 89%
    02:00 +8°C° 3.7 mm 3 mps 726 mmHg 90%
    03:00 +6°C° 3.7 mm 4 mps 726 mmHg 92%
    04:00 +5°C° 3.7 mm 4 mps 725 mmHg 93%
    05:00 +5°C° 1.7 mm 3 mps 725 mmHg 92%
    06:00 +6°C° 1.7 mm 2 mps 725 mmHg 90%
    07:00 +7°C° 1.7 mm 1 mps 725 mmHg 89%
    08:00 +6°C° 0 mm 2 mps 725 mmHg 81%
    09:00 +7°C° 0 mm 3 mps 726 mmHg 74%
    10:00 +6°C° 0 mm 4 mps 726 mmHg 66%
    11:00 +6°C° 0.1 mm 5 mps 726 mmHg 64%
    12:00 +5°C° 0.1 mm 6 mps 726 mmHg 62%
    13:00 +5°C° 0.1 mm 6 mps 726 mmHg 60%
    14:00 +4°C° 0 mm 6 mps 726 mmHg 60%
    15:00 +5°C° 0 mm 5 mps 726 mmHg 60%
    16:00 +3°C° 0 mm 5 mps 726 mmHg 61%
    17:00 +4°C° 0 mm 4 mps 726 mmHg 63%
    18:00 +3°C° 0 mm 4 mps 726 mmHg 65%
    19:00 +3°C° 0 mm 4 mps 727 mmHg 67%
    20:00 +1°C° 0 mm 5 mps 727 mmHg 66%
    21:00 +1°C° 0 mm 5 mps 727 mmHg 64%
    22:00 +1°C° 0 mm 6 mps 728 mmHg 63%
    23:00 -1°C° 0 mm 7 mps 728 mmHg 65%

    Day after tomorrow, 27 February, Thursday

    Time Temperature Precipitation Wind Pressure Humidity
    00:00 -1°C° 0 mm 7 mps 729 mmHg 66%
    01:00 -1°C° 0 mm 8 mps 729 mmHg 67%
    02:00 -1°C° 0 mm 7 mps 729 mmHg 69%
    03:00 -2°C° 0 mm 7 mps 729 mmHg 71%
    04:00 -2°C° 0 mm 6 mps 730 mmHg 73%
    05:00 -2°C° 0 mm 6 mps 730 mmHg 73%
    06:00 -2°C° 0 mm 6 mps 731 mmHg 73%
    07:00 -1°C° 0 mm 5 mps 732 mmHg 73%
    08:00 0°C° 0 mm 5 mps 732 mmHg 68%
    09:00 +1°C° 0 mm 6 mps 732 mmHg 64%
    10:00 +2°C° 0 mm 6 mps 733 mmHg 59%
    11:00 +3°C° 0 mm 5 mps 733 mmHg 55%
    12:00 +5°C° 0 mm 4 mps 733 mmHg 51%
    13:00 +6°C° 0 mm 4 mps 733 mmHg 48%
    14:00 +5°C° 0 mm 4 mps 732 mmHg 49%
    15:00 +5°C° 0 mm 4 mps 732 mmHg 50%
    16:00 +5°C° 0 mm 4 mps 731 mmHg 52%
    17:00 +5°C° 0 mm 5 mps 730 mmHg 53%
    18:00 +3°C° 0 mm 5 mps 730 mmHg 54%
    19:00 +2°C° 0 mm 5 mps 729 mmHg 55%
    20:00 +2°C° 0 mm 7 mps 728 mmHg 55%
    21:00 +1°C° 0 mm 8 mps 727 mmHg 56%
    22:00 +1°C° 0 mm 9 mps 726 mmHg 56%
    23:00 +2°C° 0 mm 9 mps 726 mmHg 61%

    28 February, Friday

    Time Temperature Precipitation Wind Pressure Humidity
    00:00 +2°C° 0 mm 9 mps 726 mmHg 66%
    01:00 +2°C° 0 mm 9 mps 725 mmHg 71%
    02:00 +2°C° 0 mm 8 mps 726 mmHg 69%
    03:00 +2°C° 0 mm 8 mps 726 mmHg 67%
    04:00 +3°C° 0 mm 7 mps 726 mmHg 66%
    05:00 +2°C° 0 mm 7 mps 727 mmHg 66%
    06:00 0°C° 0 mm 7 mps 728 mmHg 67%
    07:00 -1°C° 0 mm 7 mps 729 mmHg 68%
    08:00 0°C° 0 mm 9 mps 731 mmHg 64%
    09:00 +1°C° 0 mm 10 mps 732 mmHg 60%
    10:00 0°C° 0 mm 12 mps 733 mmHg 57%
    11:00 +2°C° 0 mm 11 mps 734 mmHg 52%
    12:00 +3°C° 0 mm 11 mps 735 mmHg 48%
    13:00 +4°C° 0 mm 11 mps 735 mmHg 43%
    14:00 +3°C° 0 mm 10 mps 736 mmHg 46%
    15:00 +3°C° 0 mm 9 mps 736 mmHg 48%
    16:00 +4°C° 0 mm 8 mps 737 mmHg 51%
    17:00 +3°C° 0 mm 7 mps 738 mmHg 55%
    18:00 +2°C° 0 mm 5 mps 738 mmHg 59%
    19:00 +1°C° 0 mm 4 mps 739 mmHg 63%
    20:00 +2°C° 0 mm 3 mps 739 mmHg 64%
    21:00 +2°C° 0 mm 2 mps 739 mmHg 65%
    22:00 +2°C° 0 mm 2 mps 740 mmHg 66%
    23:00 +2°C° 0 mm 2 mps 739 mmHg 67%

    29 February, Saturday

    Time Temperature Precipitation Wind Pressure Humidity
    00:00 +1°C° 0 mm 2 mps 739 mmHg 68%
    01:00 +1°C° 0 mm 2 mps 739 mmHg 69%
    02:00 +1°C° 0 mm 2 mps 738 mmHg 69%
    03:00 +1°C° 0 mm 2 mps 738 mmHg 69%
    04:00 0°C° 0 mm 3 mps 737 mmHg 69%
    05:00 0°C° 0 mm 3 mps 737 mmHg 68%
    06:00 0°C° 0 mm 3 mps 737 mmHg 66%
    07:00 0°C° 0 mm 3 mps 737 mmHg 65%
    08:00 0°C° 0 mm 4 mps 736 mmHg 62%
    09:00 +2°C° 0 mm 5 mps 736 mmHg 60%
    10:00 +3°C° 0 mm 6 mps 736 mmHg 57%
    11:00 +4°C° 0 mm 6 mps 735 mmHg 56%
    12:00 +5°C° 0 mm 7 mps 735 mmHg 56%
    13:00 +6°C° 0 mm 7 mps 734 mmHg 56%
    14:00 +8°C° 0 mm 7 mps 734 mmHg 59%
    15:00 +8°C° 0 mm 6 mps 733 mmHg 62%
    16:00 +8°C° 0 mm 6 mps 733 mmHg 65%
    17:00 +8°C° 0 mm 6 mps 732 mmHg 67%
    18:00 +7°C° 0 mm 6 mps 732 mmHg 70%
    19:00 +5°C° 0 mm 7 mps 731 mmHg 72%
    20:00 +5°C° 0 mm 7 mps 731 mmHg 73%
    21:00 +5°C° 0 mm 7 mps 731 mmHg 74%
    22:00 +5°C° 0 mm 7 mps 731 mmHg 75%
    23:00 +5°C° 0 mm 7 mps 731 mmHg 77%

    1 March, Sunday

    Time Temperature Precipitation Wind Pressure Humidity
    00:00 +5°C° 0 mm 6 mps 731 mmHg 79%
    01:00 +5°C° 0 mm 6 mps 731 mmHg 81%
    02:00 +4°C° 1.1 mm 6 mps 731 mmHg 81%
    03:00 +4°C° 1.1 mm 6 mps 731 mmHg 81%
    04:00 +3°C° 1.1 mm 5 mps 731 mmHg 82%
    05:00 +3°C° 0.1 mm 5 mps 732 mmHg 79%
    06:00 +3°C° 0.1 mm 5 mps 732 mmHg 77%
    07:00 +4°C° 0.1 mm 4 mps 732 mmHg 74%
    08:00 +4°C° 0 mm 4 mps 733 mmHg 71%
    09:00 +5°C° 0 mm 4 mps 733 mmHg 68%
    10:00 +5°C° 0 mm 4 mps 734 mmHg 66%
    11:00 +7°C° 0 mm 3 mps 734 mmHg 62%
    12:00 +7°C° 0 mm 2 mps 734 mmHg 58%
    13:00 +9°C° 0 mm 1 mps 734 mmHg 55%
    14:00 +8°C° 0 mm 2 mps 734 mmHg 56%
    15:00 +8°C° 0 mm 2 mps 734 mmHg 58%
    16:00 +8°C° 0 mm 3 mps 734 mmHg 59%
    17:00 +7°C° 0 mm 3 mps 734 mmHg 68%
    18:00 +5°C° 0 mm 3 mps 734 mmHg 77%
    19:00 +3°C° 0 mm 3 mps 735 mmHg 86%
    20:00 +3°C° 0 mm 3 mps 735 mmHg 87%
    21:00 +3°C° 0 mm 3 mps 735 mmHg 89%
    22:00 +3°C° 0 mm 3 mps 735 mmHg 90%
    23:00 +2°C° 0 mm 3 mps 735 mmHg 90%
    Show more